Weather Roundup
Issued by NWS Chicago, IL

Home | Current Version | Previous Version | Text Only | Print | Product List | Glossary On
Versions: 1 2 3 4 5 6 7 8 9 10 11 12 13 14 15 16 17 18 19 20 21 22 23 24 25 26 27 28 29 30 31 32 33 34 35 36 37 38 39 40 41 42 43 44 45 46 47 48 49 50
000
NZUS59 KLOT 181521
HRRLOT

CHICAGO AREA WEATHER ROUNDUP
NATIONAL WEATHER SERVICE CHICAGO/ROMEOVILLE IL
1000 AM CDT SAT APR 18 2015

NOTE: "FAIR" INDICATES FEW OR NO CLOUDS BELOW 12,000 FEET WITH NO
SIGNIFICANT WEATHER AND/OR OBSTRUCTIONS TO VISIBILITY.

* THESE STATIONS ARE NOT UNDER NWS QUALITY CONTROL. THEY ALSO MAY NOT
  REPORT WEATHER SUCH AS PRECIPITATION OR FOG.

ILZ005-006-012>014-019>023-181600-
NORTHEAST ILLINOIS

CITY           SKY/WX    TMP DP  RH WIND       PRES   REMARKS
OHARE          PTSUNNY   56  39  53 NE15G28   30.10R
MIDWAY         PTSUNNY   60  42  51 NE14      30.09R
AURORA         MOSUNNY   65  43  44 NE17      30.06R
LANSING*       SUNNY     61  43  50 NE13      30.08R
JOLIET*        MOSUNNY   69  49  49 NE12      30.04F
WAUKEGAN       SUNNY     51  36  56 N15G28    30.10R
DUPAGE AIRPORT MOSUNNY   61  41  47 NE16      30.07R
WHEELING       SUNNY     54  38  54 NE10      30.12R
KANKAKEE*      PTSUNNY   69  55  61 CALM      30.05S
MORRIS*        PTSUNNY   69  49  49 E12       30.02F
LEWIS AIRPORT* MOSUNNY   66  43  43 NE17      30.05S
NORTHERLY IS     N/A     48  38  68 MISG        N/A
$$

WIZ051-052-058>065-066-070>072-181600-
SOUTHEAST WISCONSIN

CITY           SKY/WX    TMP DP  RH WIND       PRES   REMARKS
MILWAUKEE      MOSUNNY   46  36  68 N23G35    30.14R
KENOSHA*       SUNNY     54  36  50 NE14G25   30.11R
RACINE*        SUNNY     47  36  65 N18G29    30.14R
BURLINGTON     SUNNY     55  32  41 NE16G22   30.12R
WAUKESHA       MOSUNNY   54  34  47 NE17G26   30.13R
WEST BEND      SUNNY     52  34  50 NE20G29   30.15R
$$

INZ001>003-010>013-019-020-181600-
NORTHWEST INDIANA

CITY           SKY/WX    TMP DP  RH WIND       PRES   REMARKS
GARY*          PTSUNNY   59  39  47 N12G23    30.09R
MICHIGAN CITY* NOT AVBL
RENSSELAER*    NOT AVBL
VALPARAISO     MOSUNNY   69  49  48 CALM      30.05R
$$

LMZ740>746-181600-
SOUTHERN LAKE MICHIGAN

STATION/POSITION TIME  SKY/WX   TEMP WIND        PRES    VSBY
                                AIR  DIR/SP/G
                 (UTC)          (F)  (DEG/KT/KT) (MB)    (MI)
HARRISON CRIB    1500                350/ 17/ 20   N/A
BURNHAM HARBOR   1500            48   10/  8/ 18   N/A
CALUMET HARBOR   1500            50  330/ 12/ 19   N/A
BURNS HARBOR     1400            54   20/  8/ 16 1018.3R
MICHIGAN CITY    1500            48   20/  8/  9   N/A
$$

ABBREVIATIONS USED IN REMARKS
   TC - TEMPERATURE IN CELSIUS
  WCI - WIND CHILL INDEX
   HX - HEAT INDEX
  VSB - VISIBILITY
$$



USA.gov is the U.S. government's official web portal to all federal, state and local government web resources and services.